Home   Weather   Herzogenrath   Past weeks

Flag for Germany Past Weather in Herzogenrath, North Rhine-Westphalia, Germany — Yesterday and Last 2 Weeks

Now
50 °F

Overcast.


Feels Like: 49 °F
Forecast: 36 / 58 °F
Wind: 3 mph from Northwest

Location: Maastricht Airport Zuid Limburg

Current Time: Apr 23, 2017 at 6:09:04 pm

Latest Report: Apr 23, 2017 at 5:00 pm


Visibility: 22 mi

Pressure: 30.29 "Hg

Humidity: 47%

Dew Point: 31 °F

Location of HerzogenrathLocation

Past Weather in Herzogenrath — Graph

°F

Herzogenrath Temperature Yesterday

Maximum temperature yesterday: 51 °F (at 3:00 pm)
Minimum temperature yesterday: 42 °F (at 8:00 am)
Average temperature yesterday: 47 °F

High & Low Weather Summary for the Past Weeks

 TemperatureHumidityPressure
High72 °F (Apr 9, 5:00 pm)98% (Apr 17, 8:00 am)30.66 "Hg (Apr 17, 8:00 am)
Low28 °F (Apr 20, 7:00 am)31% (Apr 9, 5:00 pm)29.95 "Hg (Apr 13, 4:00 am)
Average47 °F70%30.23 "Hg
* Reported Apr 8 4:00 pm — Apr 23 4:00 pm, Herzogenrath, Weather by CustomWeather, © 2017

Note: Actual official high and low records may vary slightly from our data, if they occured in-between our weather recording intervals... More about our weather records

Advertising

Herzogenrath Weather History for the Previous 24 Hours

Scroll right to see more
 ConditionsComfort  
Time TempWeatherWind HumidityBarometerVisibility
4:00 pm
Sun, Apr 23
50 °FOvercast.3 mph52%30.30 "Hg19 mi
3:00 pm50 °FOvercast.5 mph49%30.31 "Hg17 mi
2:00 pm50 °FScattered clouds.3 mph50%30.32 "Hg17 mi
1:00 pm47 °FOvercast.3 mph52%30.33 "Hg19 mi
12:00 pm48 °FOvercast.5 mph56%30.34 "Hg17 mi
11:00 am48 °FPartly sunny.3 mph60%30.33 "Hg19 mi
10:00 am45 °FSunny.3 mph63%30.33 "Hg22 mi
9:00 am43 °FScattered clouds.3 mph76%30.33 "Hg14 mi
8:00 am39 °FOvercast.2 mph84%30.32 "Hg11 mi
7:00 am37 °FOvercast.2 mph86%30.31 "Hg17 mi
6:00 am38 °FOvercast.2 mph84%30.30 "Hg19 mi
5:00 am39 °FOvercast.2 mph79%30.30 "Hg19 mi
4:00 am38 °FOvercast.2 mph83%30.30 "Hg19 mi
3:00 am37 °FPassing clouds.2 mph84%30.31 "Hg17 mi
2:00 am40 °FOvercast.2 mph79%30.32 "Hg19 mi
1:00 am40 °FOvercast.3 mph76%30.32 "Hg18 mi
12:00 am42 °FPassing clouds.5 mph70%30.32 "Hg19 mi
11:00 pm
Sat, Apr 22
44 °FOvercast.3 mph65%30.31 "Hg25 mi
10:00 pm45 °FOvercast.6 mph59%30.31 "Hg25 mi
9:00 pm46 °FOvercast.6 mph57%30.30 "Hg22 mi
8:00 pm47 °FOvercast.6 mph56%30.29 "Hg28 mi
7:00 pm49 °FOvercast.7 mph55%30.29 "Hg25 mi
6:00 pm49 °FOvercast.6 mph58%30.29 "Hg22 mi
Weather by CustomWeather, © 2017

See weather overviewHow to use our weather pages